Regional Weather Roundup
Issued by NWS Burlington, VT

Current Version | Previous Version | Text Only | Print | Product List | Glossary On
Versions: 1 2 3 4 5 6 7 8 9 10 11 12 13 14 15 16 17 18 19 20 21 22 23 24 25 26 27 28 29 30 31 32 33 34 35 36 37 38 39 40 41 42 43 44 45 46 47 48 49 50
000 ASUS41 KBTV 312330 RWRBTV VERMONT REGIONAL WEATHER ROUNDUP NATIONAL WEATHER SERVICE BURLINGTON VT 700 PM EDT MON AUG 31 2015 NOTE: "FAIR" INDICATES FEW OR NO CLOUDS BELOW 12,000 FEET WITH NO SIGNIFICANT WEATHER AND/OR OBSTRUCTIONS TO VISIBILITY. * THESE REPORTS ARE NOT UNDER NWS QUALITY CONTROL AND/OR DO NOT REPORT WEATHER SUCH AS PRECIPITATION AND FOG. VTZ001>019-010000- _____VERMONT_____ CITY SKY/WX TMP DP RH WIND PRES REMARKS BURLINGTON PTCLDY 76 63 64 N7 29.94R MONTPELIER CLEAR 73 61 65 VRB3 29.99R MORRISVILLE MOCLDY 74 62 66 NW3 29.96R ST. JOHNSBURY* N/A 75 60 59 MISG 29.92R LYNDONVILLE* FAIR 70 60 71 W5 29.97S MIDDLEBURY* FAIR 76 62 60 N6 29.94R RUTLAND* PTCLDY 77 57 50 W8 29.96S SPRINGFIELD CLEAR 79 60 52 NW3 29.92S HIGHGATE* FAIR 71 64 77 CALM 29.94R NEWPORT* FAIR 69 60 75 CALM 29.96S BENNINGTON CLEAR 79 62 56 W9 29.96R GALLUP MILLS* N/A 64 N/A N/A MISG N/A MT. MANSFIELD* N/A 59 N/A N/A NW26 N/A _____LAKE CHAMPLAIN_____ CITY SKY/WX TMP DP RH WIND PRES REMARKS COLCHESTER RF* N/A 77 66 69 N16 N/A DIAMOND ISL* N/A 77 66 69 N10 N/A $$ NYZ007-026>031-035-052-083-010000- _____NORTHERN NEW YORK_____ CITY SKY/WX TMP DP RH WIND PRES REMARKS PLATTSBURGH CLEAR 75 64 68 NW9 29.93R SARANAC LAKE CLEAR 70 62 76 VRB3 30.00R MASSENA MOCLDY 74 63 68 W6 29.97R OGDENSBURG* PTCLDY 73 66 78 NE3 29.97S POTSDAM* PTCLDY 73 68 83 N3 29.98R STARK FALLS* N/A 75 N/A N/A NW6 N/A WATERTOWN PTCLDY 74 67 78 SW6 29.98S HAZE FT DRUM CLEAR 74 67 76 SW8 29.99R ALBANY PTCLDY 81 62 52 NW9 29.95R GLENS FALLS PTCLDY 81 61 50 VRB7 29.93R $$ NHZ002-005-011-010000- _____NEW HAMPSHIRE_____ CITY SKY/WX TMP DP RH WIND PRES REMARKS LEBANON CLEAR 80 62 54 NW5 29.91S KEENE CLEAR 79 61 53 S5 29.93S MT WASHINGTON FOG 50 50 100 W61G71 N/A VSB 0 PLYMOUTH FAIR 75 61 62 NW6 29.90R WHITEFIELD CLEAR 72 61 68 NW5 29.94R $$ _____REGIONAL QUEBEC LOCATIONS_____ CITY SKY/WX TMP DP RH WIND PRES REMARKS MONTREAL MOCLDY 75 64 69 W10 29.92R QUEBEC CITY MOCLDY 70 55 60 NW9G17 29.87R SHERBROOKE PTCLDY 72 63 73 W9 29.91R _____REGIONAL ONTARIO LOCATIONS_____ CITY SKY/WX TMP DP RH WIND PRES REMARKS OTTAWA MOCLDY 73 63 68 W8 29.97S ______KEY______ VSB - VISIBILITY IN MILES WCI - WIND CHILL INDEX HX - HEAT INDEX $$ NNNN

USA.gov is the U.S. government's official web portal to all federal, state and local government web resources and services.